This demonstration page uses our WeatherBlox Daily Observations layout. Learn more.

Left ArrowRight Arrow

Hourly Observations for October 14, 2019

Temp ( °F °C ) Dew Point ( °F °C ) Humidity (%) Winds ( mph kmh ) Pressure ( in mb ) Visibility ( mi km ) Precip ( " mm )
12:53 am 00:53 Clear 65 18.3 43 6.1 45 45 SSW 5 7 29.86 1011 10 16 0.00 0.00
1:53 am 01:53 Clear 65 18.3 44 6.7 47 47 SSW 3 6 29.85 1011 10 16 0.00 0.00
2:53 am 02:53 Clear 64 17.8 45 7.2 50 50 SE 5 7 29.85 1011 10 16 0.00 0.00
3:53 am 03:53 Clear 64 17.8 45 7.2 50 50 SE 3 6 29.84 1011 10 16 0.00 0.00
4:53 am 04:53 Clear 63 17.2 46 7.8 54 54 ESE 6 9 29.83 1010 10 16 0.00 0.00
5:53 am 05:53 Clear 63 17.2 46 7.8 54 54 Calm 29.84 1011 10 16 0.00 0.00
6:53 am 06:53 Clear 63 17.2 47 8.3 56 56 SSE 6 9 29.86 1011 10 16 0.00 0.00
7:53 am 07:53 Mostly Clear 63 17.2 47 8.3 56 56 SE 6 9 29.88 1012 10 16 0.00 0.00
8:53 am 08:53 Sunny 66 18.9 50 10 56 56 S 3 6 29.89 1012 10 16 0.00 0.00
9:53 am 09:53 Sunny 68 20 55 12.8 63 63 S 6 9 29.91 1013 10 16 0.00 0.00
10:53 am 10:53 Mostly Cloudy 70 21.1 57 13.9 64 64 S 6 9 29.92 1013 10 16 0.00 0.00
11:53 am 11:53 Mostly Sunny 75 23.9 57 13.9 54 54 SSW 10 17 29.91 1013 10 16 0.00 0.00
12:53 pm 12:53 Mostly Cloudy 76 24.4 57 13.9 52 52 SW 10 17 29.88 1012 10 16 0.00 0.00
1:53 pm 13:53 Cloudy 78 25.6 58 14.4 50 50 S 12 19 29.85 1011 10 16 0.00 0.00
2:53 pm 14:53 Mostly Sunny 82 27.8 58 14.4 44 44 SW 16 26 29.81 1009 10 16 0.00 0.00
3:53 pm 15:53 Partly Cloudy 82 27.8 55 12.8 40 40 SSW 12 19 29.79 1009 10 16 0.00 0.00
4:53 pm 16:53 Partly Cloudy 84 28.9 53 11.7 34 34 WSW 13 20 29.78 1009 10 16 0.00 0.00
5:53 pm 17:53 Sunny 83 28.3 53 11.7 36 36 SW 16 26 29.79 1009 10 16 0.00 0.00
6:53 pm 18:53 Mostly Sunny 82 27.8 55 12.8 40 40 WSW 12 19 29.79 1009 10 16 0.00 0.00
7:53 pm 19:53 Clear 79 26.1 55 12.8 44 44 SW 10 17 29.81 1010 10 16 0.00 0.00
8:53 pm 20:53 Clear 74 23.3 58 14.4 57 57 SSE 7 11 29.83 1010 10 16 0.00 0.00
9:53 pm 21:53 Clear 73 22.8 60 15.6 64 64 S 6 9 29.84 1011 10 16 0.00 0.00
10:53 pm 22:53 Clear 73 22.8 61 16.1 66 66 S 5 7 29.85 1011 10 16 0.00 0.00
11:53 pm 23:53 Mostly Cloudy 73 22.8 61 16.1 66 66 SW 10 17 29.85 1011 10 16 0.00 0.00

Powered by AerisWeather